sat.trackr.live / text

‹ back to catalog

KAZSAT-3

NORAD 39728 · 2014-023B

PAYLOAD ACTIVE UNKNOWN

§ Identity

Operator
Country
KAZ
Launch date
2014-04-28
Launch site
TYMSC
Launch vehicle
Mass (kg)
RCS (m²)
0.00

Purposes: comms

External: N2YO · Heavens-Above · Gunter

§ Orbital elements

Epoch: 2026-05-25T04:01:15.665952Z

Period
1,436.09 min
Inclination
0.0476°
Eccentricity
0.0000208
Mean motion
1.00272542 rev/d
Perigee alt
35,785.5 km
Apogee alt
35,787.3 km
Semi-major
42,164.5 km
B*
0.0000e+0
RAAN
84.3210°
Arg perigee
12.0638°
Mean anomaly
265.1907°
Rev number
4,222

§ Raw data

KAZSAT-31 39728U 14023B   26145.16754243  .00000058  00000+0  00000+0 0  99902 39728   0.0476  84.3210 0000208  12.0638 265.1907  1.00272542 42229

JSON: /api/v1/satellites/39728 · /tle

For live sub-satellite position, see the globe view (requires WebGL).

§ Visibility from observer

Set your observer location to see the next 7 days of passes ≥ 10°. The values pass through the URL so the page stays shareable.

No JS? Fill the form by hand. The geolocation button needs JavaScript.